Weather History for KDFW - November, 2013

Change the Weather History Date:

Saturday, November 16, 2013

  Actual Average Record
Temperature  
Mean Temperature 72 °F 56 °F  
Max Temperature 80 °F 67 °F 86 °F (1921)
Min Temperature 63 °F 46 °F 24 °F (1997)
Degree Days  
Heating Degree Days 0 9  
Month to date heating degree days 126 112  
Since 1 July heating degree days 170 184  
Cooling Degree Days 7 1  
Month to date cooling degree days 8 24  
Year to date cooling degree days 2920 2747  
Growing Degree Days 23 (Base 50)    
Moisture  
Dew Point 62 °F    
Average Humidity 73    
Maximum Humidity 87    
Minimum Humidity 58    
Precipitation  
Precipitation 0.00 in 0.08 in 3.24 in (1902)
Month to date precipitation 1.21 1.64  
Year to date precipitation 25.73 32.52  
Snow  
Snow 0.00 in 0.00 in 0.00 in ()
Month to date snowfall 0.0 0.0  
Since 1 July snowfall 0.0 0.0  
Since 1 September snowfall 0.0 0.0  
Snow Depth 0.00 in    
Sea Level Pressure  
Sea Level Pressure 29.75 in    
Wind  
Wind Speed 18 mph (South)    
Max Wind Speed 29 mph    
Max Gust Speed 35 mph    
Visibility 10 miles    
Events      
T = Trace of Precipitation, MM = Missing Value Source: NWS Daily Summary

Daily Weather History Graph

Daily Weather History Graph

Search for Another Location

Airport or City:

Trip Planner

Search our weather history database for the weather conditions in past years. The results will help you decide how hot, cold, wet, or windy it might be!

Date:

Astronomy

Nov. 16, 2013 Rise Set
Actual Time 6:59 AM CST 5:25 PM CST
Civil Twilight 6:33 AM CST 5:52 PM CST
Nautical Twilight 6:03 AM CST 6:22 PM CST
Astronomical Twilight 5:34 AM CST 6:51 PM CST
Moon 5:00 PM CST (11/16) 5:59 AM CST (11/16)
Length of Visible Light 11h 18m
Length of Day
10h 26m
Waxing Gibbous, 99% of the Moon is Illuminated
Nov 16
Waxing Gibbous
Nov 17
Full
Nov 25
Last Quarter
Dec 2
New
Dec 9
First Quarter

Hourly Weather History & Observations

Time (CST) Temp. Dew Point Humidity Pressure Visibility Wind Dir Wind Speed Gust Speed Precip Events Conditions
12:53 AM 64.9 °F 57.9 °F 78% 29.83 in 10.0 mi South 15.0 mph - N/A   Scattered Clouds
1:53 AM 64.0 °F 57.9 °F 80% 29.81 in 10.0 mi South 15.0 mph - N/A   Partly Cloudy
2:53 AM 64.0 °F 57.9 °F 80% 29.80 in 10.0 mi South 20.7 mph - N/A   Partly Cloudy
3:35 AM 64.0 °F 60.1 °F 87% 29.82 in 10.0 mi South 17.3 mph 25.3 mph N/A   Mostly Cloudy
3:53 AM 64.0 °F 60.1 °F 87% 29.79 in 10.0 mi South 20.7 mph 26.5 mph N/A   Mostly Cloudy
4:02 AM 64.0 °F 60.1 °F 87% 29.81 in 10.0 mi South 20.7 mph 26.5 mph N/A   Mostly Cloudy
4:53 AM 64.9 °F 60.1 °F 84% 29.80 in 10.0 mi South 26.5 mph 31.1 mph N/A   Overcast
5:26 AM 64.9 °F 60.1 °F 84% 29.81 in 10.0 mi South 18.4 mph 28.8 mph N/A   Overcast
5:53 AM 66.0 °F 60.1 °F 81% 29.80 in 10.0 mi South 20.7 mph 26.5 mph N/A   Overcast
6:53 AM 66.0 °F 60.1 °F 81% 29.80 in 10.0 mi South 17.3 mph 21.9 mph N/A   Overcast
7:53 AM 66.0 °F 60.1 °F 81% 29.81 in 10.0 mi South 13.8 mph - N/A   Overcast
8:53 AM 68.0 °F 60.1 °F 76% 29.84 in 10.0 mi SSW 13.8 mph - N/A   Overcast
9:53 AM 69.1 °F 61.0 °F 75% 29.83 in 10.0 mi South 16.1 mph - N/A   Mostly Cloudy
10:36 AM 71.1 °F 61.0 °F 70% 29.83 in 10.0 mi SSW 20.7 mph 27.6 mph N/A   Mostly Cloudy
10:53 AM 72.0 °F 61.0 °F 68% 29.80 in 10.0 mi SSW 17.3 mph 26.5 mph N/A   Mostly Cloudy
11:53 AM 73.9 °F 61.0 °F 64% 29.76 in 10.0 mi South 21.9 mph 33.4 mph N/A   Mostly Cloudy
12:53 PM 75.9 °F 62.1 °F 62% 29.72 in 10.0 mi South 19.6 mph 25.3 mph N/A   Mostly Cloudy
1:53 PM 75.9 °F 63.0 °F 64% 29.69 in 10.0 mi South 17.3 mph 24.2 mph N/A   Mostly Cloudy
2:53 PM 79.0 °F 62.1 °F 56% 29.66 in 10.0 mi South 18.4 mph 29.9 mph N/A   Mostly Cloudy
3:53 PM 77.0 °F 62.1 °F 60% 29.65 in 10.0 mi South 24.2 mph 32.2 mph N/A   Mostly Cloudy
4:53 PM 75.9 °F 63.0 °F 64% 29.65 in 10.0 mi South 23.0 mph - N/A   Mostly Cloudy
5:53 PM 75.0 °F 64.0 °F 69% 29.65 in 10.0 mi South 18.4 mph - N/A   Mostly Cloudy
6:53 PM 73.0 °F 64.9 °F 76% 29.66 in 10.0 mi South 11.5 mph - N/A   Scattered Clouds
7:53 PM 72.0 °F 66.0 °F 81% 29.68 in 10.0 mi South 12.7 mph - N/A   Scattered Clouds
8:53 PM 71.1 °F 66.0 °F 84% 29.68 in 10.0 mi South 12.7 mph - N/A   Scattered Clouds
9:53 PM 71.1 °F 66.9 °F 87% 29.69 in 10.0 mi South 12.7 mph - N/A   Scattered Clouds
10:40 PM 73.9 °F 68.0 °F 82% 29.71 in 10.0 mi South 19.6 mph - N/A   Overcast
10:53 PM 73.9 °F 68.0 °F 82% 29.69 in 10.0 mi South 21.9 mph - N/A   Overcast
11:53 PM 73.9 °F 68.0 °F 82% 29.69 in 10.0 mi South 24.2 mph 31.1 mph N/A   Mostly Cloudy